GLOBAL-13

导读

GLOBAL-13是一颗由美国发射的人造卫星,于协调世界时2021年12月2日发射,国际标识为2021-115BB。截至2026年3月,该卫星已在轨飞行超1500天,运行状态稳定。其轨道近地点高度约440公里,远地点约444公里,轨道倾角53.2度,绕行周期约93.4分钟,每日绕地球飞行约15.4圈,属于近地轨道卫星,目前公开信息中未披露其具体任务用途。

Basic Information
目录编号:
49773
目录名称:
GLOBAL-13
国际标识:
2021-115BB
轨道中心:
EARTH
卫星名称:
GLOBAL-13
卫星全名:
--
卫星状态:
在轨 (已飞行1737 天)
发射日期:
2021-12-02 UTC
国别 :
美国 (US)
星等 :
--
Orbit Information
数据来源 国际轨道数据
星历时间: 2026-09-03T19:06:46+0800
19小时前
查看轨道信息
半长轴: 6798.362km
偏心率: 0.0002171
轨道倾角: 53.197°
近地点辐角 41.725°
升交点赤经 41.699°
平近点角 318.392°
近地点: 418.749km
远地点: 421.701km
周期: 92.975分钟
每日圈数: 15.488038
Detailed Information
使用方式:
暂无
2D Orbit Map
3D Orbit Map
Orbit Altitude Analysis Chart
Orbit Inclination Analysis Chart
Orbit Comprehensive Analysis Chart
View Comprehensive Chart